• In Belarus
  • List of Countries
  • For 7 days
  • Water Temperature
  • Satellite Maps
  • Weather Map
  • Weather Widgets
  • user-avatar
    Login

    Hourly Weather Smorodino

    Today, 21 April, Sunday

    Time Temperature Precipitation Wind Pressure Humidity
    00:00 +10°C° 0 mm 1 mps 748 mmHg 45%
    01:00 +9°C° 0 mm 1 mps 748 mmHg 46%
    02:00 +9°C° 0 mm 1 mps 748 mmHg 48%
    03:00 +7°C° 0 mm 1 mps 748 mmHg 47%
    04:00 +7°C° 0 mm 1 mps 748 mmHg 48%
    05:00 +7°C° 0 mm 1 mps 748 mmHg 49%
    06:00 +6°C° 0 mm 1 mps 749 mmHg 49%
    07:00 +8°C° 0 mm 1 mps 749 mmHg 45%
    08:00 +10°C° 0 mm 1 mps 749 mmHg 41%
    09:00 +11°C° 0 mm 1 mps 749 mmHg 37%
    10:00 +13°C° 0 mm 1 mps 750 mmHg 33%
    11:00 +14°C° 0 mm 2 mps 750 mmHg 30%
    12:00 +15°C° 0 mm 2 mps 750 mmHg 26%
    13:00 +15°C° 0 mm 1 mps 750 mmHg 26%
    14:00 +15°C° 0 mm 1 mps 750 mmHg 26%
    15:00 +16°C° 0 mm 1 mps 749 mmHg 25%
    16:00 +16°C° 0 mm 1 mps 749 mmHg 26%
    17:00 +15°C° 0 mm 1 mps 749 mmHg 27%
    18:00 +15°C° 0 mm 1 mps 749 mmHg 29%
    19:00 +14°C° 0 mm 1 mps 750 mmHg 32%
    20:00 +13°C° 0 mm 1 mps 750 mmHg 36%
    21:00 +12°C° 0 mm 1 mps 750 mmHg 40%
    22:00 +11°C° 0 mm 1 mps 750 mmHg 42%
    23:00 +10°C° 0 mm 1 mps 750 mmHg 44%

    Tomorrow, 22 April, Monday

    Time Temperature Precipitation Wind Pressure Humidity
    00:00 +10°C° 0 mm 1 mps 750 mmHg 46%
    01:00 +9°C° 0 mm 1 mps 751 mmHg 47%
    02:00 +9°C° 0 mm 1 mps 751 mmHg 48%
    03:00 +9°C° 0 mm 1 mps 751 mmHg 49%
    04:00 +8°C° 0 mm 1 mps 751 mmHg 51%
    05:00 +8°C° 0 mm 1 mps 751 mmHg 52%
    06:00 +8°C° 0 mm 1 mps 751 mmHg 54%
    07:00 +9°C° 0 mm 1 mps 751 mmHg 50%
    08:00 +11°C° 0 mm 1 mps 752 mmHg 46%
    09:00 +13°C° 0 mm 2 mps 752 mmHg 42%
    10:00 +14°C° 0 mm 2 mps 752 mmHg 38%
    11:00 +15°C° 0 mm 2 mps 752 mmHg 34%
    12:00 +16°C° 0 mm 2 mps 752 mmHg 30%
    13:00 +16°C° 0 mm 2 mps 752 mmHg 30%
    14:00 +16°C° 0 mm 2 mps 751 mmHg 31%
    15:00 +16°C° 0 mm 2 mps 751 mmHg 32%
    16:00 +16°C° 0 mm 2 mps 751 mmHg 34%
    17:00 +16°C° 0 mm 2 mps 751 mmHg 36%
    18:00 +16°C° 0 mm 2 mps 751 mmHg 39%
    19:00 +15°C° 0 mm 1 mps 751 mmHg 41%
    20:00 +14°C° 0 mm 1 mps 751 mmHg 43%
    21:00 +13°C° 0 mm 1 mps 751 mmHg 45%
    22:00 +13°C° 0 mm 1 mps 751 mmHg 46%
    23:00 +12°C° 0 mm 1 mps 751 mmHg 47%

    Day after tomorrow, 23 April, Tuesday

    Time Temperature Precipitation Wind Pressure Humidity
    00:00 +12°C° 0 mm 1 mps 752 mmHg 48%
    01:00 +12°C° 0 mm 2 mps 752 mmHg 50%
    02:00 +10°C° 0 mm 2 mps 752 mmHg 51%
    03:00 +10°C° 0 mm 2 mps 752 mmHg 52%
    04:00 +10°C° 0 mm 2 mps 752 mmHg 54%
    05:00 +10°C° 0 mm 2 mps 752 mmHg 56%
    06:00 +9°C° 0 mm 2 mps 752 mmHg 58%
    07:00 +12°C° 0 mm 2 mps 752 mmHg 56%
    08:00 +12°C° 0 mm 3 mps 752 mmHg 53%
    09:00 +13°C° 0 mm 3 mps 753 mmHg 51%
    10:00 +16°C° 0 mm 3 mps 752 mmHg 46%
    11:00 +17°C° 0 mm 4 mps 752 mmHg 42%
    12:00 +18°C° 0 mm 4 mps 752 mmHg 37%
    13:00 +18°C° 0 mm 4 mps 752 mmHg 37%
    14:00 +18°C° 0 mm 4 mps 752 mmHg 36%
    15:00 +19°C° 0 mm 4 mps 751 mmHg 35%
    16:00 +18°C° 0 mm 4 mps 751 mmHg 37%
    17:00 +18°C° 0 mm 4 mps 751 mmHg 39%
    18:00 +18°C° 0 mm 4 mps 751 mmHg 41%
    19:00 +16°C° 0 mm 3 mps 751 mmHg 45%
    20:00 +14°C° 0 mm 3 mps 751 mmHg 50%
    21:00 +13°C° 0 mm 3 mps 751 mmHg 55%
    22:00 +12°C° 0 mm 3 mps 751 mmHg 57%
    23:00 +12°C° 0 mm 3 mps 751 mmHg 59%

    24 April, Wednesday

    Time Temperature Precipitation Wind Pressure Humidity
    00:00 +11°C° 0 mm 3 mps 751 mmHg 61%
    01:00 +10°C° 0 mm 3 mps 752 mmHg 63%
    02:00 +10°C° 0 mm 3 mps 752 mmHg 64%
    03:00 +9°C° 0 mm 3 mps 752 mmHg 66%
    04:00 +9°C° 0 mm 3 mps 752 mmHg 67%
    05:00 +9°C° 0 mm 3 mps 752 mmHg 69%
    06:00 +9°C° 0 mm 3 mps 752 mmHg 70%
    07:00 +10°C° 0 mm 4 mps 752 mmHg 64%
    08:00 +12°C° 0 mm 4 mps 752 mmHg 58%
    09:00 +14°C° 0 mm 4 mps 752 mmHg 52%
    10:00 +15°C° 0 mm 4 mps 752 mmHg 48%
    11:00 +17°C° 0 mm 5 mps 752 mmHg 44%
    12:00 +19°C° 0 mm 5 mps 752 mmHg 39%
    13:00 +19°C° 0 mm 5 mps 752 mmHg 38%
    14:00 +20°C° 0 mm 5 mps 752 mmHg 37%
    15:00 +20°C° 0 mm 5 mps 751 mmHg 37%
    16:00 +20°C° 0 mm 5 mps 751 mmHg 38%
    17:00 +20°C° 0 mm 4 mps 751 mmHg 39%
    18:00 +20°C° 0 mm 4 mps 751 mmHg 41%
    19:00 +18°C° 0 mm 3 mps 751 mmHg 45%
    20:00 +16°C° 0 mm 3 mps 751 mmHg 50%
    21:00 +15°C° 0 mm 2 mps 751 mmHg 54%
    22:00 +14°C° 0 mm 2 mps 751 mmHg 56%
    23:00 +14°C° 0 mm 2 mps 752 mmHg 57%

    25 April, Thursday

    Time Temperature Precipitation Wind Pressure Humidity
    00:00 +13°C° 0 mm 2 mps 752 mmHg 59%
    01:00 +13°C° 0 mm 2 mps 752 mmHg 60%
    02:00 +12°C° 0 mm 2 mps 752 mmHg 62%
    03:00 +10°C° 0 mm 2 mps 752 mmHg 63%
    04:00 +10°C° 0 mm 2 mps 752 mmHg 64%
    05:00 +10°C° 0 mm 2 mps 752 mmHg 66%
    06:00 +10°C° 0 mm 2 mps 752 mmHg 67%
    07:00 +13°C° 0 mm 2 mps 753 mmHg 61%
    08:00 +15°C° 0 mm 2 mps 753 mmHg 56%
    09:00 +16°C° 0 mm 2 mps 753 mmHg 50%
    10:00 +18°C° 0 mm 2 mps 753 mmHg 45%
    11:00 +19°C° 0 mm 2 mps 752 mmHg 41%
    12:00 +20°C° 0 mm 2 mps 752 mmHg 36%
    13:00 +21°C° 0 mm 2 mps 752 mmHg 35%
    14:00 +21°C° 0 mm 2 mps 752 mmHg 34%
    15:00 +23°C° 0 mm 2 mps 752 mmHg 32%
    16:00 +23°C° 0 mm 2 mps 751 mmHg 34%
    17:00 +21°C° 0 mm 2 mps 751 mmHg 35%
    18:00 +21°C° 0 mm 2 mps 750 mmHg 37%
    19:00 +20°C° 0 mm 2 mps 750 mmHg 41%
    20:00 +19°C° 0 mm 1 mps 750 mmHg 45%
    21:00 +18°C° 0 mm 1 mps 750 mmHg 48%
    22:00 +16°C° 0 mm 1 mps 750 mmHg 51%
    23:00 +15°C° 0 mm 1 mps 750 mmHg 53%

    26 April, Friday

    Time Temperature Precipitation Wind Pressure Humidity
    00:00 +15°C° 0 mm 1 mps 750 mmHg 55%
    01:00 +14°C° 0 mm 2 mps 750 mmHg 57%
    02:00 +14°C° 0 mm 2 mps 750 mmHg 60%
    03:00 +13°C° 0 mm 2 mps 750 mmHg 63%
    04:00 +13°C° 0 mm 2 mps 750 mmHg 65%
    05:00 +13°C° 0 mm 2 mps 749 mmHg 67%
    06:00 +12°C° 0 mm 2 mps 749 mmHg 70%
    07:00 +14°C° 0 mm 2 mps 749 mmHg 63%
    08:00 +16°C° 0 mm 2 mps 749 mmHg 57%
    09:00 +18°C° 0 mm 2 mps 749 mmHg 51%
    10:00 +19°C° 0 mm 3 mps 749 mmHg 48%
    11:00 +20°C° 0 mm 3 mps 748 mmHg 44%
    12:00 +21°C° 0 mm 4 mps 748 mmHg 41%
    13:00 +21°C° 0 mm 4 mps 748 mmHg 41%
    14:00 +21°C° 0 mm 5 mps 747 mmHg 41%
    15:00 +21°C° 0 mm 5 mps 747 mmHg 41%
    16:00 +20°C° 0 mm 4 mps 747 mmHg 44%
    17:00 +20°C° 0 mm 4 mps 746 mmHg 48%
    18:00 +19°C° 0 mm 3 mps 746 mmHg 51%
    19:00 +18°C° 0 mm 3 mps 746 mmHg 55%
    20:00 +17°C° 0 mm 3 mps 746 mmHg 58%
    21:00 +16°C° 0 mm 3 mps 745 mmHg 62%
    22:00 +16°C° 0 mm 3 mps 745 mmHg 63%
    23:00 +16°C° 0 mm 3 mps 745 mmHg 64%
    Show more